#datetime,building,power
2023-02-15T00:00:00,mnr,7.94
2023-02-15T00:01:00,mnr,8.29
2023-02-15T00:02:00,mnr,8.05
2023-02-15T00:03:00,mnr,7.96
2023-02-15T00:04:00,mnr,7.93
2023-02-15T00:05:00,mnr,7.95
2023-02-15T00:06:00,mnr,8.22
2023-02-15T00:07:00,mnr,7.97
2023-02-15T00:08:00,mnr,8.15
2023-02-15T00:09:00,mnr,8.29
2023-02-15T00:10:00,mnr,7.72
2023-02-15T00:11:00,mnr,7.46
2023-02-15T00:12:00,mnr,7.43
2023-02-15T00:13:00,mnr,7.59
2023-02-15T00:14:00,mnr,7.59
2023-02-15T00:15:00,mnr,7.00
2023-02-15T00:16:00,mnr,6.90
2023-02-15T00:17:00,mnr,6.89
2023-02-15T00:18:00,mnr,6.91
2023-02-15T00:19:00,mnr,6.43
2023-02-15T00:20:00,mnr,6.93
2023-02-15T00:21:00,mnr,6.62
2023-02-15T00:22:00,mnr,6.21
2023-02-15T00:23:00,mnr,7.27
2023-02-15T00:24:00,mnr,6.18
2023-02-15T00:25:00,mnr,5.69
2023-02-15T00:26:00,mnr,5.71
2023-02-15T00:27:00,mnr,6.02
2023-02-15T00:28:00,mnr,5.70
2023-02-15T00:29:00,mnr,5.74
2023-02-15T00:30:00,mnr,5.68
2023-02-15T00:31:00,mnr,5.66
2023-02-15T00:32:00,mnr,6.00
2023-02-15T00:33:00,mnr,5.66
2023-02-15T00:34:00,mnr,5.08
2023-02-15T00:35:00,mnr,5.11
2023-02-15T00:36:00,mnr,5.16
2023-02-15T00:37:00,mnr,5.00
2023-02-15T00:38:00,mnr,5.27
2023-02-15T00:39:00,mnr,4.99
2023-02-15T00:40:00,mnr,5.21
2023-02-15T00:41:00,mnr,4.94
2023-02-15T00:42:00,mnr,5.11
2023-02-15T00:43:00,mnr,5.19
2023-02-15T00:44:00,mnr,5.94
2023-02-15T00:45:00,mnr,5.14
2023-02-15T00:46:00,mnr,5.15
2023-02-15T00:47:00,mnr,5.15
2023-02-15T00:48:00,mnr,5.11
2023-02-15T00:49:00,mnr,5.72
2023-02-15T00:50:00,mnr,5.12
2023-02-15T00:51:00,mnr,5.07
2023-02-15T00:52:00,mnr,5.14
2023-02-15T00:53:00,mnr,5.37
2023-02-15T00:54:00,mnr,5.77
2023-02-15T00:55:00,mnr,5.02
2023-02-15T00:56:00,mnr,5.11
2023-02-15T00:57:00,mnr,5.01
2023-02-15T00:58:00,mnr,5.04
2023-02-15T00:59:00,mnr,5.01
2023-02-15T01:00:00,mnr,6.11
2023-02-15T01:01:00,mnr,5.03
2023-02-15T01:02:00,mnr,5.06
2023-02-15T01:03:00,mnr,5.54
2023-02-15T01:04:00,mnr,4.95
2023-02-15T01:05:00,mnr,5.29
2023-02-15T01:06:00,mnr,5.01
2023-02-15T01:07:00,mnr,4.99
2023-02-15T01:08:00,mnr,5.52
2023-02-15T01:09:00,mnr,6.14
2023-02-15T01:10:00,mnr,5.49
2023-02-15T01:11:00,mnr,5.54
2023-02-15T01:12:00,mnr,5.59
2023-02-15T01:13:00,mnr,5.49
2023-02-15T01:14:00,mnr,5.69
2023-02-15T01:15:00,mnr,5.65
2023-02-15T01:16:00,mnr,5.57
2023-02-15T01:17:00,mnr,5.55
2023-02-15T01:18:00,mnr,5.48
2023-02-15T01:19:00,mnr,5.93
2023-02-15T01:20:00,mnr,5.56
2023-02-15T01:21:00,mnr,5.57
2023-02-15T01:22:00,mnr,5.64
2023-02-15T01:23:00,mnr,5.82
2023-02-15T01:24:00,mnr,5.50
2023-02-15T01:25:00,mnr,5.59
2023-02-15T01:26:00,mnr,6.07
2023-02-15T01:27:00,mnr,5.52
2023-02-15T01:28:00,mnr,5.50
2023-02-15T01:29:00,mnr,5.54
2023-02-15T01:30:00,mnr,5.48
2023-02-15T01:31:00,mnr,5.56
2023-02-15T01:32:00,mnr,5.87
2023-02-15T01:33:00,mnr,5.19
2023-02-15T01:34:00,mnr,5.25
2023-02-15T01:35:00,mnr,5.26
2023-02-15T01:36:00,mnr,5.27
2023-02-15T01:37:00,mnr,5.22
2023-02-15T01:38:00,mnr,6.15
2023-02-15T01:39:00,mnr,5.21
2023-02-15T01:40:00,mnr,5.17
2023-02-15T01:41:00,mnr,5.17
2023-02-15T01:42:00,mnr,5.94
2023-02-15T01:43:00,mnr,5.13
2023-02-15T01:44:00,mnr,5.11
2023-02-15T01:45:00,mnr,5.06
2023-02-15T01:46:00,mnr,5.08
2023-02-15T01:47:00,mnr,5.48
2023-02-15T01:48:00,mnr,5.10
2023-02-15T01:49:00,mnr,5.02
2023-02-15T01:50:00,mnr,5.07
2023-02-15T01:51:00,mnr,5.06
2023-02-15T01:52:00,mnr,5.05
2023-02-15T01:53:00,mnr,5.36
2023-02-15T01:54:00,mnr,5.10
2023-02-15T01:55:00,mnr,5.04
2023-02-15T01:56:00,mnr,5.16
2023-02-15T01:57:00,mnr,5.16
2023-02-15T01:58:00,mnr,5.07
2023-02-15T01:59:00,mnr,5.08
2023-02-15T02:00:00,mnr,5.08
2023-02-15T02:01:00,mnr,5.02
2023-02-15T02:02:00,mnr,5.09
2023-02-15T02:03:00,mnr,5.68
2023-02-15T02:04:00,mnr,4.96
2023-02-15T02:05:00,mnr,5.83
2023-02-15T02:06:00,mnr,5.40
2023-02-15T02:07:00,mnr,4.95
2023-02-15T02:08:00,mnr,4.80
2023-02-15T02:09:00,mnr,4.92
2023-02-15T02:10:00,mnr,4.45
2023-02-15T02:11:00,mnr,4.46
2023-02-15T02:12:00,mnr,5.70
2023-02-15T02:13:00,mnr,4.50
2023-02-15T02:14:00,mnr,4.46
2023-02-15T02:15:00,mnr,4.46
2023-02-15T02:16:00,mnr,4.53
2023-02-15T02:17:00,mnr,4.49
2023-02-15T02:18:00,mnr,4.43
2023-02-15T02:19:00,mnr,4.49
2023-02-15T02:20:00,mnr,4.61
2023-02-15T02:21:00,mnr,4.57
2023-02-15T02:22:00,mnr,4.52
2023-02-15T02:23:00,mnr,5.41
2023-02-15T02:24:00,mnr,5.33
2023-02-15T02:25:00,mnr,6.48
2023-02-15T02:26:00,mnr,7.08
2023-02-15T02:27:00,mnr,5.99
2023-02-15T02:28:00,mnr,6.77
2023-02-15T02:29:00,mnr,5.99
2023-02-15T02:30:00,mnr,5.95
2023-02-15T02:31:00,mnr,5.96
2023-02-15T02:32:00,mnr,6.00
2023-02-15T02:33:00,mnr,6.00
2023-02-15T02:34:00,mnr,6.07
2023-02-15T02:35:00,mnr,6.05
2023-02-15T02:36:00,mnr,6.87
2023-02-15T02:37:00,mnr,6.82
2023-02-15T02:38:00,mnr,6.46
2023-02-15T02:39:00,mnr,6.18
2023-02-15T02:40:00,mnr,5.54
2023-02-15T02:41:00,mnr,5.73
2023-02-15T02:42:00,mnr,6.40
2023-02-15T02:43:00,mnr,5.69
2023-02-15T02:44:00,mnr,5.68
2023-02-15T02:45:00,mnr,6.05
2023-02-15T02:46:00,mnr,6.01
2023-02-15T02:47:00,mnr,5.50
2023-02-15T02:48:00,mnr,5.75
2023-02-15T02:49:00,mnr,6.05
2023-02-15T02:50:00,mnr,6.41
2023-02-15T02:51:00,mnr,6.38
2023-02-15T02:52:00,mnr,6.46
2023-02-15T02:53:00,mnr,6.52
2023-02-15T02:54:00,mnr,6.39
2023-02-15T02:55:00,mnr,6.36
2023-02-15T02:56:00,mnr,6.39
2023-02-15T02:57:00,mnr,6.41
2023-02-15T02:58:00,mnr,6.51
2023-02-15T02:59:00,mnr,6.42
2023-02-15T03:00:00,mnr,7.08
2023-02-15T03:01:00,mnr,7.12
2023-02-15T03:02:00,mnr,6.83
2023-02-15T03:03:00,mnr,6.43
2023-02-15T03:04:00,mnr,6.37
2023-02-15T03:05:00,mnr,6.20
2023-02-15T03:06:00,mnr,5.62
2023-02-15T03:07:00,mnr,5.68
2023-02-15T03:08:00,mnr,5.70
2023-02-15T03:09:00,mnr,5.48
2023-02-15T03:10:00,mnr,5.46
2023-02-15T03:11:00,mnr,5.60
2023-02-15T03:12:00,mnr,6.30
2023-02-15T03:13:00,mnr,5.50
2023-02-15T03:14:00,mnr,5.58
2023-02-15T03:15:00,mnr,5.52
2023-02-15T03:16:00,mnr,6.51
2023-02-15T03:17:00,mnr,5.42
2023-02-15T03:18:00,mnr,5.44
2023-02-15T03:19:00,mnr,5.38
2023-02-15T03:20:00,mnr,5.52
2023-02-15T03:21:00,mnr,5.86
2023-02-15T03:22:00,mnr,5.62
2023-02-15T03:23:00,mnr,7.39
2023-02-15T03:24:00,mnr,5.89
2023-02-15T03:25:00,mnr,5.52
2023-02-15T03:26:00,mnr,5.44
2023-02-15T03:27:00,mnr,5.47
2023-02-15T03:28:00,mnr,6.15
2023-02-15T03:29:00,mnr,5.73
2023-02-15T03:30:00,mnr,5.52
2023-02-15T03:31:00,mnr,5.48
2023-02-15T03:32:00,mnr,5.42
2023-02-15T03:33:00,mnr,5.34
2023-02-15T03:34:00,mnr,5.33
2023-02-15T03:35:00,mnr,5.39
2023-02-15T03:36:00,mnr,5.54
2023-02-15T03:37:00,mnr,5.37
2023-02-15T03:38:00,mnr,5.56
2023-02-15T03:39:00,mnr,6.06
2023-02-15T03:40:00,mnr,5.35
2023-02-15T03:41:00,mnr,5.35
2023-02-15T03:42:00,mnr,5.36
2023-02-15T03:43:00,mnr,6.04
2023-02-15T03:44:00,mnr,6.19
2023-02-15T03:45:00,mnr,6.16
2023-02-15T03:46:00,mnr,6.76
2023-02-15T03:47:00,mnr,7.00
2023-02-15T03:48:00,mnr,6.75
2023-02-15T03:49:00,mnr,6.86
2023-02-15T03:50:00,mnr,6.89
2023-02-15T03:51:00,mnr,7.43
2023-02-15T03:52:00,mnr,7.63
2023-02-15T03:53:00,mnr,7.86
2023-02-15T03:54:00,mnr,6.33
2023-02-15T03:55:00,mnr,6.35
2023-02-15T03:56:00,mnr,6.34
2023-02-15T03:57:00,mnr,7.49
2023-02-15T03:58:00,mnr,7.53
2023-02-15T03:59:00,mnr,6.32
2023-02-15T04:00:00,mnr,6.00
2023-02-15T04:01:00,mnr,7.42
2023-02-15T04:02:00,mnr,7.85
2023-02-15T04:03:00,mnr,7.27
2023-02-15T04:04:00,mnr,7.31
2023-02-15T04:05:00,mnr,7.40
2023-02-15T04:06:00,mnr,7.23
2023-02-15T04:07:00,mnr,7.42
2023-02-15T04:08:00,mnr,7.06
2023-02-15T04:09:00,mnr,7.66
2023-02-15T04:10:00,mnr,6.80
2023-02-15T04:11:00,mnr,7.04
2023-02-15T04:12:00,mnr,7.10
2023-02-15T04:13:00,mnr,7.10
2023-02-15T04:14:00,mnr,7.18
2023-02-15T04:15:00,mnr,7.22
2023-02-15T04:16:00,mnr,7.05
2023-02-15T04:17:00,mnr,7.11
2023-02-15T04:18:00,mnr,6.55
2023-02-15T04:19:00,mnr,7.16
2023-02-15T04:20:00,mnr,6.51
2023-02-15T04:21:00,mnr,7.62
2023-02-15T04:22:00,mnr,6.56
2023-02-15T04:23:00,mnr,6.77
2023-02-15T04:24:00,mnr,6.43
2023-02-15T04:25:00,mnr,7.44
2023-02-15T04:26:00,mnr,8.33
2023-02-15T04:27:00,mnr,7.30
2023-02-15T04:28:00,mnr,7.15
2023-02-15T04:29:00,mnr,6.62
2023-02-15T04:30:00,mnr,6.44
2023-02-15T04:31:00,mnr,6.39
2023-02-15T04:32:00,mnr,6.42
2023-02-15T04:33:00,mnr,6.12
2023-02-15T04:34:00,mnr,6.91
2023-02-15T04:35:00,mnr,7.87
2023-02-15T04:36:00,mnr,7.17
2023-02-15T04:37:00,mnr,7.25
2023-02-15T04:38:00,mnr,7.44
2023-02-15T04:39:00,mnr,7.20
2023-02-15T04:40:00,mnr,6.68
2023-02-15T04:41:00,mnr,7.27
2023-02-15T04:42:00,mnr,7.50
2023-02-15T04:43:00,mnr,6.68
2023-02-15T04:44:00,mnr,6.70
2023-02-15T04:45:00,mnr,8.86
2023-02-15T04:46:00,mnr,7.02
2023-02-15T04:47:00,mnr,7.02
2023-02-15T04:48:00,mnr,7.02
2023-02-15T04:49:00,mnr,6.98
2023-02-15T04:50:00,mnr,7.77
2023-02-15T04:51:00,mnr,7.77
2023-02-15T04:52:00,mnr,8.13
2023-02-15T04:53:00,mnr,8.00
2023-02-15T04:54:00,mnr,7.82
2023-02-15T04:55:00,mnr,8.43
2023-02-15T04:56:00,mnr,7.90
2023-02-15T04:57:00,mnr,8.32
2023-02-15T04:58:00,mnr,7.51
2023-02-15T04:59:00,mnr,7.55
2023-02-15T05:00:00,mnr,8.56
2023-02-15T05:01:00,mnr,8.56
2023-02-15T05:02:00,mnr,8.63
2023-02-15T05:03:00,mnr,8.61
2023-02-15T05:04:00,mnr,7.50
2023-02-15T05:05:00,mnr,7.40
2023-02-15T05:06:00,mnr,7.33
2023-02-15T05:07:00,mnr,7.40
2023-02-15T05:08:00,mnr,7.26
2023-02-15T05:09:00,mnr,7.09
2023-02-15T05:10:00,mnr,7.02
2023-02-15T05:11:00,mnr,7.39
2023-02-15T05:12:00,mnr,8.00
2023-02-15T05:13:00,mnr,9.42
2023-02-15T05:14:00,mnr,7.66
2023-02-15T05:15:00,mnr,6.87
2023-02-15T05:16:00,mnr,7.17
2023-02-15T05:17:00,mnr,7.33
2023-02-15T05:18:00,mnr,7.94
2023-02-15T05:19:00,mnr,7.13
2023-02-15T05:20:00,mnr,7.06
2023-02-15T05:21:00,mnr,7.04
2023-02-15T05:22:00,mnr,6.99
2023-02-15T05:23:00,mnr,7.09
2023-02-15T05:24:00,mnr,6.84
2023-02-15T05:25:00,mnr,7.17
2023-02-15T05:26:00,mnr,7.10
2023-02-15T05:27:00,mnr,6.70
2023-02-15T05:28:00,mnr,6.44
2023-02-15T05:29:00,mnr,6.36
2023-02-15T05:30:00,mnr,5.87
2023-02-15T05:31:00,mnr,5.49
2023-02-15T05:32:00,mnr,5.09
2023-02-15T05:33:00,mnr,5.12
2023-02-15T05:34:00,mnr,5.07
2023-02-15T05:35:00,mnr,5.27
2023-02-15T05:36:00,mnr,5.47
2023-02-15T05:37:00,mnr,5.04
2023-02-15T05:38:00,mnr,5.21
2023-02-15T05:39:00,mnr,5.06
2023-02-15T05:40:00,mnr,5.06
2023-02-15T05:41:00,mnr,4.99
2023-02-15T05:42:00,mnr,5.72
2023-02-15T05:43:00,mnr,5.03
2023-02-15T05:44:00,mnr,5.03
2023-02-15T05:45:00,mnr,5.05
2023-02-15T05:46:00,mnr,6.39
2023-02-15T05:47:00,mnr,5.02
2023-02-15T05:48:00,mnr,4.94
2023-02-15T05:49:00,mnr,4.97
2023-02-15T05:50:00,mnr,5.58
2023-02-15T05:51:00,mnr,4.52
2023-02-15T05:52:00,mnr,4.51
2023-02-15T05:53:00,mnr,4.78
2023-02-15T05:54:00,mnr,4.47
2023-02-15T05:55:00,mnr,5.95
2023-02-15T05:56:00,mnr,4.48
2023-02-15T05:57:00,mnr,4.46
2023-02-15T05:58:00,mnr,4.50
2023-02-15T05:59:00,mnr,5.77
2023-02-15T06:00:00,mnr,6.16
2023-02-15T06:01:00,mnr,6.56
2023-02-15T06:02:00,mnr,7.71
2023-02-15T06:03:00,mnr,10.06
2023-02-15T06:04:00,mnr,11.22
2023-02-15T06:05:00,mnr,13.07
2023-02-15T06:06:00,mnr,15.70
2023-02-15T06:07:00,mnr,14.16
2023-02-15T06:08:00,mnr,13.63
2023-02-15T06:09:00,mnr,12.97
2023-02-15T06:10:00,mnr,13.04
2023-02-15T06:11:00,mnr,13.02
2023-02-15T06:12:00,mnr,13.05
2023-02-15T06:13:00,mnr,12.97
2023-02-15T06:14:00,mnr,12.90
2023-02-15T06:15:00,mnr,12.96
2023-02-15T06:16:00,mnr,13.98
2023-02-15T06:17:00,mnr,12.99
2023-02-15T06:18:00,mnr,13.00
2023-02-15T06:19:00,mnr,13.75
2023-02-15T06:20:00,mnr,12.92
2023-02-15T06:21:00,mnr,14.28
2023-02-15T06:22:00,mnr,13.65
2023-02-15T06:23:00,mnr,13.75
2023-02-15T06:24:00,mnr,14.89
2023-02-15T06:25:00,mnr,13.52
2023-02-15T06:26:00,mnr,13.96
2023-02-15T06:27:00,mnr,13.69
2023-02-15T06:28:00,mnr,13.69
2023-02-15T06:29:00,mnr,13.80
2023-02-15T06:30:00,mnr,13.88
2023-02-15T06:31:00,mnr,13.79
2023-02-15T06:32:00,mnr,14.88
2023-02-15T06:33:00,mnr,14.17
2023-02-15T06:34:00,mnr,14.13
2023-02-15T06:35:00,mnr,14.03
2023-02-15T06:36:00,mnr,14.02
2023-02-15T06:37:00,mnr,14.05
2023-02-15T06:38:00,mnr,14.15
2023-02-15T06:39:00,mnr,13.30
2023-02-15T06:40:00,mnr,13.82
2023-02-15T06:41:00,mnr,14.36
2023-02-15T06:42:00,mnr,13.75
2023-02-15T06:43:00,mnr,14.55
2023-02-15T06:44:00,mnr,14.66
2023-02-15T06:45:00,mnr,14.55
2023-02-15T06:46:00,mnr,15.03
2023-02-15T06:47:00,mnr,14.35
2023-02-15T06:48:00,mnr,14.40
2023-02-15T06:49:00,mnr,14.31
2023-02-15T06:50:00,mnr,14.34
2023-02-15T06:51:00,mnr,14.41
2023-02-15T06:52:00,mnr,14.40
2023-02-15T06:53:00,mnr,14.67
2023-02-15T06:54:00,mnr,14.45
2023-02-15T06:55:00,mnr,14.50
2023-02-15T06:56:00,mnr,14.64
2023-02-15T06:57:00,mnr,13.64
2023-02-15T06:58:00,mnr,14.76
2023-02-15T06:59:00,mnr,14.77
2023-02-15T07:00:00,mnr,14.80
2023-02-15T07:01:00,mnr,14.83
2023-02-15T07:02:00,mnr,14.83
2023-02-15T07:03:00,mnr,15.07
2023-02-15T07:04:00,mnr,14.71
2023-02-15T07:05:00,mnr,14.61
2023-02-15T07:06:00,mnr,14.71
2023-02-15T07:07:00,mnr,14.62
2023-02-15T07:08:00,mnr,15.91
2023-02-15T07:09:00,mnr,20.81
2023-02-15T07:10:00,mnr,14.59
2023-02-15T07:11:00,mnr,15.32
2023-02-15T07:12:00,mnr,15.55
2023-02-15T07:13:00,mnr,15.56
2023-02-15T07:14:00,mnr,15.60
2023-02-15T07:15:00,mnr,15.51
2023-02-15T07:16:00,mnr,14.46
2023-02-15T07:17:00,mnr,14.43
2023-02-15T07:18:00,mnr,14.40
2023-02-15T07:19:00,mnr,14.37
2023-02-15T07:20:00,mnr,14.34
2023-02-15T07:21:00,mnr,23.76
2023-02-15T07:22:00,mnr,14.43
2023-02-15T07:23:00,mnr,14.67
2023-02-15T07:24:00,mnr,14.37
2023-02-15T07:25:00,mnr,14.80
2023-02-15T07:26:00,mnr,14.55
2023-02-15T07:27:00,mnr,14.34
2023-02-15T07:28:00,mnr,14.15
2023-02-15T07:29:00,mnr,14.19
2023-02-15T07:30:00,mnr,14.31
2023-02-15T07:31:00,mnr,14.84
2023-02-15T07:32:00,mnr,14.41
2023-02-15T07:33:00,mnr,13.27
2023-02-15T07:34:00,mnr,13.40
2023-02-15T07:35:00,mnr,13.95
2023-02-15T07:36:00,mnr,14.78
2023-02-15T07:37:00,mnr,16.50
2023-02-15T07:38:00,mnr,13.82
2023-02-15T07:39:00,mnr,13.12
2023-02-15T07:40:00,mnr,13.40
2023-02-15T07:41:00,mnr,13.54
2023-02-15T07:42:00,mnr,12.91
2023-02-15T07:43:00,mnr,12.93
2023-02-15T07:44:00,mnr,13.08
2023-02-15T07:45:00,mnr,12.81
2023-02-15T07:46:00,mnr,12.82
2023-02-15T07:47:00,mnr,12.94
2023-02-15T07:48:00,mnr,12.85
2023-02-15T07:49:00,mnr,13.53
2023-02-15T07:50:00,mnr,13.68
2023-02-15T07:51:00,mnr,13.59
2023-02-15T07:52:00,mnr,13.71
2023-02-15T07:53:00,mnr,14.73
2023-02-15T07:54:00,mnr,14.14
2023-02-15T07:55:00,mnr,14.49
2023-02-15T07:56:00,mnr,14.60
2023-02-15T07:57:00,mnr,14.74
2023-02-15T07:58:00,mnr,14.62
2023-02-15T07:59:00,mnr,14.57
2023-02-15T08:00:00,mnr,14.62
2023-02-15T08:01:00,mnr,14.70
2023-02-15T08:02:00,mnr,14.62
2023-02-15T08:03:00,mnr,14.76
2023-02-15T08:04:00,mnr,14.88
2023-02-15T08:05:00,mnr,14.83
2023-02-15T08:06:00,mnr,16.21
2023-02-15T08:07:00,mnr,14.92
2023-02-15T08:08:00,mnr,15.05
2023-02-15T08:09:00,mnr,14.77
2023-02-15T08:10:00,mnr,14.72
2023-02-15T08:11:00,mnr,15.81
2023-02-15T08:12:00,mnr,15.22
2023-02-15T08:13:00,mnr,14.88
2023-02-15T08:14:00,mnr,15.26
2023-02-15T08:15:00,mnr,14.53
2023-02-15T08:16:00,mnr,14.53
2023-02-15T08:17:00,mnr,14.85
2023-02-15T08:18:00,mnr,14.80
2023-02-15T08:19:00,mnr,14.86
2023-02-15T08:20:00,mnr,14.71
2023-02-15T08:21:00,mnr,16.14
2023-02-15T08:22:00,mnr,16.81
2023-02-15T08:23:00,mnr,16.75
2023-02-15T08:24:00,mnr,17.38
2023-02-15T08:25:00,mnr,16.48
2023-02-15T08:26:00,mnr,15.52
2023-02-15T08:27:00,mnr,16.28
2023-02-15T08:28:00,mnr,15.52
2023-02-15T08:29:00,mnr,15.39
2023-02-15T08:30:00,mnr,15.47
2023-02-15T08:31:00,mnr,15.70
2023-02-15T08:32:00,mnr,16.90
2023-02-15T08:33:00,mnr,16.42
2023-02-15T08:34:00,mnr,15.54
2023-02-15T08:35:00,mnr,15.71
2023-02-15T08:36:00,mnr,17.13
2023-02-15T08:37:00,mnr,18.49
2023-02-15T08:38:00,mnr,18.20
2023-02-15T08:39:00,mnr,17.56
2023-02-15T08:40:00,mnr,17.38
2023-02-15T08:41:00,mnr,17.49
2023-02-15T08:42:00,mnr,17.45
2023-02-15T08:43:00,mnr,17.83
2023-02-15T08:44:00,mnr,17.47
2023-02-15T08:45:00,mnr,17.37
2023-02-15T08:46:00,mnr,17.63
2023-02-15T08:47:00,mnr,18.03
2023-02-15T08:48:00,mnr,17.29
2023-02-15T08:49:00,mnr,17.24
2023-02-15T08:50:00,mnr,17.20
2023-02-15T08:51:00,mnr,16.84
2023-02-15T08:52:00,mnr,16.70
2023-02-15T08:53:00,mnr,16.77
2023-02-15T08:54:00,mnr,16.85
2023-02-15T08:55:00,mnr,17.62
2023-02-15T08:56:00,mnr,17.10
2023-02-15T08:57:00,mnr,16.51
2023-02-15T08:58:00,mnr,15.95
2023-02-15T08:59:00,mnr,16.08
2023-02-15T09:00:00,mnr,15.99
2023-02-15T09:01:00,mnr,16.22
2023-02-15T09:02:00,mnr,17.56
2023-02-15T09:03:00,mnr,16.28
2023-02-15T09:04:00,mnr,17.96
2023-02-15T09:05:00,mnr,18.07
2023-02-15T09:06:00,mnr,17.51
2023-02-15T09:07:00,mnr,16.81
2023-02-15T09:08:00,mnr,17.11
2023-02-15T09:09:00,mnr,17.48
2023-02-15T09:10:00,mnr,17.04
2023-02-15T09:11:00,mnr,17.51
2023-02-15T09:12:00,mnr,17.04
2023-02-15T09:13:00,mnr,16.93
2023-02-15T09:14:00,mnr,16.94
2023-02-15T09:15:00,mnr,16.95
2023-02-15T09:16:00,mnr,17.12
2023-02-15T09:17:00,mnr,16.80
2023-02-15T09:18:00,mnr,17.97
2023-02-15T09:19:00,mnr,17.34
2023-02-15T09:20:00,mnr,17.51
2023-02-15T09:21:00,mnr,16.79
2023-02-15T09:22:00,mnr,16.97
2023-02-15T09:23:00,mnr,17.22
2023-02-15T09:24:00,mnr,16.87
2023-02-15T09:25:00,mnr,16.86
2023-02-15T09:26:00,mnr,17.18
2023-02-15T09:27:00,mnr,16.91
2023-02-15T09:28:00,mnr,17.15
2023-02-15T09:29:00,mnr,17.23
2023-02-15T09:30:00,mnr,17.27
2023-02-15T09:31:00,mnr,17.86
2023-02-15T09:32:00,mnr,17.25
2023-02-15T09:33:00,mnr,17.96
2023-02-15T09:34:00,mnr,17.41
2023-02-15T09:35:00,mnr,18.53
2023-02-15T09:36:00,mnr,18.95
2023-02-15T09:37:00,mnr,18.55
2023-02-15T09:38:00,mnr,19.32
2023-02-15T09:39:00,mnr,16.44
2023-02-15T09:40:00,mnr,19.07
2023-02-15T09:41:00,mnr,16.18
2023-02-15T09:42:00,mnr,19.14
2023-02-15T09:43:00,mnr,20.26
2023-02-15T09:44:00,mnr,19.60
2023-02-15T09:45:00,mnr,21.66
2023-02-15T09:46:00,mnr,22.02
2023-02-15T09:47:00,mnr,18.41
2023-02-15T09:48:00,mnr,21.97
2023-02-15T09:49:00,mnr,21.66
2023-02-15T09:50:00,mnr,21.73
2023-02-15T09:51:00,mnr,20.08
2023-02-15T09:52:00,mnr,20.09
2023-02-15T09:53:00,mnr,22.30
2023-02-15T09:54:00,mnr,20.64
2023-02-15T09:55:00,mnr,20.75
2023-02-15T09:56:00,mnr,20.06
2023-02-15T09:57:00,mnr,20.48
2023-02-15T09:58:00,mnr,21.46
2023-02-15T09:59:00,mnr,20.48
2023-02-15T10:00:00,mnr,20.06
2023-02-15T10:01:00,mnr,20.40
2023-02-15T10:02:00,mnr,20.06
2023-02-15T10:03:00,mnr,20.09
2023-02-15T10:04:00,mnr,21.13
2023-02-15T10:05:00,mnr,20.22
2023-02-15T10:06:00,mnr,20.27
2023-02-15T10:07:00,mnr,20.20
2023-02-15T10:08:00,mnr,21.14
2023-02-15T10:09:00,mnr,20.18
2023-02-15T10:10:00,mnr,20.15
2023-02-15T10:11:00,mnr,21.32
2023-02-15T10:12:00,mnr,20.87
2023-02-15T10:13:00,mnr,20.97
2023-02-15T10:14:00,mnr,21.35
2023-02-15T10:15:00,mnr,20.32
2023-02-15T10:16:00,mnr,20.43
2023-02-15T10:17:00,mnr,20.57
2023-02-15T10:18:00,mnr,21.20
2023-02-15T10:19:00,mnr,21.60
2023-02-15T10:20:00,mnr,17.49
2023-02-15T10:21:00,mnr,22.28
2023-02-15T10:22:00,mnr,21.70
2023-02-15T10:23:00,mnr,21.69
2023-02-15T10:24:00,mnr,20.64
2023-02-15T10:25:00,mnr,21.23
2023-02-15T10:26:00,mnr,20.67
2023-02-15T10:27:00,mnr,21.84
2023-02-15T10:28:00,mnr,20.76
2023-02-15T10:29:00,mnr,21.50
2023-02-15T10:30:00,mnr,20.73
2023-02-15T10:31:00,mnr,21.46
2023-02-15T10:32:00,mnr,20.98
2023-02-15T10:33:00,mnr,20.72
2023-02-15T10:34:00,mnr,20.81
2023-02-15T10:35:00,mnr,21.11
2023-02-15T10:36:00,mnr,21.15
2023-02-15T10:37:00,mnr,21.49
2023-02-15T10:38:00,mnr,21.46
2023-02-15T10:39:00,mnr,20.80
2023-02-15T10:40:00,mnr,21.23
2023-02-15T10:41:00,mnr,20.97
2023-02-15T10:42:00,mnr,21.51
2023-02-15T10:43:00,mnr,21.51
2023-02-15T10:44:00,mnr,21.06
2023-02-15T10:45:00,mnr,21.45
2023-02-15T10:46:00,mnr,21.69
2023-02-15T10:47:00,mnr,20.82
2023-02-15T10:48:00,mnr,20.99
2023-02-15T10:49:00,mnr,20.98
2023-02-15T10:50:00,mnr,20.36
2023-02-15T10:51:00,mnr,20.40
2023-02-15T10:52:00,mnr,20.84
2023-02-15T10:53:00,mnr,20.51
2023-02-15T10:54:00,mnr,21.33
2023-02-15T10:55:00,mnr,20.31
2023-02-15T10:56:00,mnr,21.28
2023-02-15T10:57:00,mnr,20.31
2023-02-15T10:58:00,mnr,20.29
2023-02-15T10:59:00,mnr,21.25
2023-02-15T11:00:00,mnr,21.33
2023-02-15T11:01:00,mnr,22.03
2023-02-15T11:02:00,mnr,19.88
2023-02-15T11:03:00,mnr,19.87
2023-02-15T11:04:00,mnr,20.65
2023-02-15T11:05:00,mnr,19.60
2023-02-15T11:06:00,mnr,20.66
2023-02-15T11:07:00,mnr,16.44
2023-02-15T11:08:00,mnr,20.62
2023-02-15T11:09:00,mnr,20.67
2023-02-15T11:10:00,mnr,31.72
2023-02-15T11:11:00,mnr,21.32
2023-02-15T11:12:00,mnr,20.57
2023-02-15T11:13:00,mnr,18.17
2023-02-15T11:14:00,mnr,20.11
2023-02-15T11:15:00,mnr,21.45
2023-02-15T11:16:00,mnr,20.41
2023-02-15T11:17:00,mnr,24.25
2023-02-15T11:18:00,mnr,24.38
2023-02-15T11:19:00,mnr,22.46
2023-02-15T11:20:00,mnr,20.39
2023-02-15T11:21:00,mnr,20.55
2023-02-15T11:22:00,mnr,20.17
2023-02-15T11:23:00,mnr,20.43
2023-02-15T11:24:00,mnr,20.26
2023-02-15T11:25:00,mnr,20.99
2023-02-15T11:26:00,mnr,20.77
2023-02-15T11:27:00,mnr,20.14
2023-02-15T11:28:00,mnr,20.20
2023-02-15T11:29:00,mnr,20.19
2023-02-15T11:30:00,mnr,22.04
2023-02-15T11:31:00,mnr,20.90
2023-02-15T11:32:00,mnr,20.61
2023-02-15T11:33:00,mnr,20.57
2023-02-15T11:34:00,mnr,21.55
2023-02-15T11:35:00,mnr,20.51
2023-02-15T11:36:00,mnr,21.12
2023-02-15T11:37:00,mnr,21.00
2023-02-15T11:38:00,mnr,20.48
2023-02-15T11:39:00,mnr,20.94
2023-02-15T11:40:00,mnr,20.16
2023-02-15T11:41:00,mnr,20.07
2023-02-15T11:42:00,mnr,20.11
2023-02-15T11:43:00,mnr,20.09
2023-02-15T11:44:00,mnr,20.90
2023-02-15T11:45:00,mnr,20.33
2023-02-15T11:46:00,mnr,20.96
2023-02-15T11:47:00,mnr,20.32
2023-02-15T11:48:00,mnr,20.35
2023-02-15T11:49:00,mnr,20.58
2023-02-15T11:50:00,mnr,20.06
2023-02-15T11:51:00,mnr,20.09
2023-02-15T11:52:00,mnr,20.68
2023-02-15T11:53:00,mnr,22.11
2023-02-15T11:54:00,mnr,20.91
2023-02-15T11:55:00,mnr,20.93
2023-02-15T11:56:00,mnr,20.52
2023-02-15T11:57:00,mnr,19.98
2023-02-15T11:58:00,mnr,19.88
2023-02-15T11:59:00,mnr,19.83
2023-02-15T12:00:00,mnr,19.97
2023-02-15T12:01:00,mnr,19.97
2023-02-15T12:02:00,mnr,21.59
2023-02-15T12:03:00,mnr,20.12
2023-02-15T12:04:00,mnr,20.68
2023-02-15T12:05:00,mnr,20.19
2023-02-15T12:06:00,mnr,21.48
2023-02-15T12:07:00,mnr,20.76
2023-02-15T12:08:00,mnr,21.63
2023-02-15T12:09:00,mnr,22.30
2023-02-15T12:10:00,mnr,21.52
2023-02-15T12:11:00,mnr,21.66
2023-02-15T12:12:00,mnr,19.94
2023-02-15T12:13:00,mnr,20.86
2023-02-15T12:14:00,mnr,20.74
2023-02-15T12:15:00,mnr,22.60
2023-02-15T12:16:00,mnr,20.67
2023-02-15T12:17:00,mnr,20.00
2023-02-15T12:18:00,mnr,20.60
2023-02-15T12:19:00,mnr,20.11
2023-02-15T12:20:00,mnr,24.00
2023-02-15T12:21:00,mnr,22.42
2023-02-15T12:22:00,mnr,20.73
2023-02-15T12:23:00,mnr,26.24
2023-02-15T12:24:00,mnr,19.96
2023-02-15T12:25:00,mnr,21.39
2023-02-15T12:26:00,mnr,19.94
2023-02-15T12:27:00,mnr,20.70
2023-02-15T12:28:00,mnr,20.02
2023-02-15T12:29:00,mnr,19.93
2023-02-15T12:30:00,mnr,21.10
2023-02-15T12:31:00,mnr,15.50
2023-02-15T12:32:00,mnr,17.80
2023-02-15T12:33:00,mnr,19.38
2023-02-15T12:34:00,mnr,20.94
2023-02-15T12:35:00,mnr,26.80
2023-02-15T12:36:00,mnr,19.73
2023-02-15T12:37:00,mnr,20.21
2023-02-15T12:38:00,mnr,19.59
2023-02-15T12:39:00,mnr,19.35
2023-02-15T12:40:00,mnr,19.22
2023-02-15T12:41:00,mnr,19.70
2023-02-15T12:42:00,mnr,19.71
2023-02-15T12:43:00,mnr,19.67
2023-02-15T12:44:00,mnr,19.38
2023-02-15T12:45:00,mnr,19.14
2023-02-15T12:46:00,mnr,19.09
2023-02-15T12:47:00,mnr,20.09
2023-02-15T12:48:00,mnr,18.93
2023-02-15T12:49:00,mnr,19.75
2023-02-15T12:50:00,mnr,18.88
2023-02-15T12:51:00,mnr,18.71
2023-02-15T12:52:00,mnr,18.00
2023-02-15T12:53:00,mnr,18.06
2023-02-15T12:54:00,mnr,18.64
2023-02-15T12:55:00,mnr,17.71
2023-02-15T12:56:00,mnr,17.82
2023-02-15T12:57:00,mnr,18.01
2023-02-15T12:58:00,mnr,18.13
2023-02-15T12:59:00,mnr,14.71
2023-02-15T13:00:00,mnr,20.34
2023-02-15T13:01:00,mnr,19.01
2023-02-15T13:02:00,mnr,18.93
2023-02-15T13:03:00,mnr,19.62
2023-02-15T13:04:00,mnr,18.88
2023-02-15T13:05:00,mnr,19.81
2023-02-15T13:06:00,mnr,18.66
2023-02-15T13:07:00,mnr,19.62
2023-02-15T13:08:00,mnr,20.12
2023-02-15T13:09:00,mnr,19.66
2023-02-15T13:10:00,mnr,19.67
2023-02-15T13:11:00,mnr,19.69
2023-02-15T13:12:00,mnr,19.74
2023-02-15T13:13:00,mnr,19.73
2023-02-15T13:14:00,mnr,22.31
2023-02-15T13:15:00,mnr,19.93
2023-02-15T13:16:00,mnr,19.85
2023-02-15T13:17:00,mnr,19.75
2023-02-15T13:18:00,mnr,19.84
2023-02-15T13:19:00,mnr,20.70
2023-02-15T13:20:00,mnr,20.21
2023-02-15T13:21:00,mnr,19.75
2023-02-15T13:22:00,mnr,19.97
2023-02-15T13:23:00,mnr,19.97
2023-02-15T13:24:00,mnr,20.24
2023-02-15T13:25:00,mnr,20.86
2023-02-15T13:26:00,mnr,20.02
2023-02-15T13:27:00,mnr,19.00
2023-02-15T13:28:00,mnr,18.86
2023-02-15T13:29:00,mnr,18.92
2023-02-15T13:30:00,mnr,18.56